DW6632 Weather Reports


time (UTC)temp
C
wind
direction
speed
KPH
gust
KPH
rain 1hr
cm
rain 24hr
cm
rain mn
cm
humidity
%
barometer
mb
20260506203204 16 348 0.0 4.8 0.00 0.00 0.00 77 1011.9
20260506201705 16 332 1.6 4.8 0.00 0.00 0.00 75 1011.7
20260506201205 16 307 1.6 4.8 0.00 0.00 0.00 75 1011.7
20260506193705 17 5 1.6 4.8 0.00 0.00 0.00 73 1011.1
20260506193205 17 252 0.0 4.8 0.00 0.00 0.00 71 1011.1
20260506191705 17 87 1.6 3.2 0.00 0.00 0.00 71 1010.9
20260506191205 17 86 0.0 0.0 0.00 0.00 0.00 70 1010.9
20260506190705 17 86 0.0 4.8 0.00 0.00 0.00 70 1010.7
20260506184705 18 103 0.0 0.0 0.00 0.00 0.00 68 1010.6
20260506184205 18 103 0.0 0.0 0.00 0.00 0.00 68 1010.6
20260506183705 18 103 0.0 0.0 0.00 0.00 0.00 67 1010.6
20260506183205 18 104 0.0 0.0 0.00 0.00 0.00 67 1010.5
20260506181705 18 115 1.6 4.8 0.00 0.00 0.00 66 1010.5
20260506181205 19 85 3.2 4.8 0.00 0.00 0.00 64 1010.4
20260506180705 19 113 1.6 4.8 0.00 0.00 0.00 64 1010.3
20260506180205 19 131 0.0 4.8 0.00 0.00 0.00 64 1010.3
20260506174705 19 181 4.8 11.3 0.00 0.00 0.00 63 1010.3
20260506174205 19 164 3.2 8.0 0.00 0.00 0.00 63 1010.3
20260506173705 19 165 6.4 9.7 0.00 0.00 0.00 62 1010.3
20260506173205 19 171 6.4 11.3 0.00 0.00 0.00 62 1010.3
20260506171705 20 154 4.8 11.3 0.00 0.00 0.00 61 1010.3
20260506171205 20 168 4.8 14.5 0.00 0.00 0.00 60 1010.3
20260506170705 20 81 1.6 4.8 0.00 0.00 0.00 60 1010.2
20260506170205 20 118 0.0 8.0 0.00 0.00 0.00 60 1010.3
20260506164706 21 126 0.0 4.8 0.00 0.00 0.00 59 1010.2
20260506164205 21 133 1.6 4.8 0.00 0.00 0.00 59 1010.1
20260506163705 21 185 3.2 9.7 0.00 0.00 0.00 58 1010.2
20260506161205 21 73 3.2 9.7 0.00 0.00 0.00 57 1010.1
20260506160705 21 72 3.2 4.8 0.00 0.00 0.00 57 1010.1
20260506160205 21 54 3.2 12.9 0.00 0.00 0.00 58 1010.1
20260506154204 21 87 1.6 4.8 0.00 0.00 0.00 61 1010.1
20260506153705 21 44 3.2 8.0 0.00 0.00 0.00 58 1010.1
20260506151704 21 80 3.2 4.8 0.00 0.00 0.00 56 1010.1
20260506151205 21 124 0.0 11.3 0.00 0.00 0.00 57 1010.0
20260506150705 21 117 3.2 8.0 0.00 0.00 0.00 57 1010.0
20260506150206 21 114 4.8 16.1 0.00 0.00 0.00 58 1010.0
20260506144205 21 81 4.8 14.5 0.00 0.00 0.00 55 1010.2
20260506143705 21 79 4.8 12.9 0.00 0.00 0.00 55 1010.2
20260506143205 21 86 6.4 19.3 0.00 0.00 0.00 56 1010.2
20260506141705 21 93 4.8 12.9 0.00 0.00 0.00 57 1010.4
20260506141205 21 104 6.4 19.3 0.00 0.00 0.00 56 1010.4
20260506140705 22 106 4.8 19.3 0.00 0.00 0.00 55 1010.3
20260506140205 21 81 4.8 19.3 0.00 0.00 0.00 57 1010.2
20260506134705 21 176 4.8 12.9 0.00 0.00 0.00 55 1010.5
20260506134205 21 136 8.0 19.3 0.00 0.00 0.00 55 1010.5
20260506133705 21 91 8.0 14.5 0.00 0.00 0.00 55 1010.5
20260506133205 21 137 6.4 20.9 0.00 0.00 0.00 56 1010.5
20260506131705 21 98 4.8 11.3 0.00 0.00 0.00 54 1010.6
20260506131205 22 106 3.2 11.3 0.00 0.00 0.00 54 1010.5
20260506130704 22 107 6.4 14.5 0.00 0.00 0.00 53 1010.6
20260506130205 22 41 4.8 11.3 0.00 0.00 0.00 55 1010.6
20260506124205 21 117 4.8 11.3 0.00 0.00 0.00 55 1010.8
20260506123705 22 102 4.8 11.3 0.00 0.00 0.00 54 1010.7
20260506123205 22 79 4.8 11.3 0.00 0.00 0.00 53 1010.8
20260506121705 21 170 3.2 11.3 0.00 0.00 0.00 54 1011.0
20260506121204 21 106 3.2 12.9 0.00 0.00 0.00 55 1011.1
20260506120705 21 55 1.6 8.0 0.00 0.00 0.00 56 1011.2
20260506120205 21 154 6.4 14.5 0.00 0.00 0.00 54 1011.2
20260506114704 21 80 3.2 4.8 0.00 0.00 0.00 55 1011.3
20260506114205 21 89 3.2 9.7 0.00 0.00 0.00 56 1011.3
20260506111704 20 145 3.2 11.3 0.00 0.00 0.00 58 1011.7
20260506111205 20 100 3.2 4.8 0.00 0.00 0.00 60 1011.8
20260506110205 20 304 1.6 4.8 0.00 0.00 0.00 61 1011.8
20260506104704 18 10 1.6 4.8 0.00 0.00 0.00 64 1011.9
20260506104205 18 18 3.2 8.0 0.00 0.00 0.00 63 1012.0
20260506103705 19 11 3.2 8.0 0.00 0.00 0.00 63 1012.0
20260506103204 19 12 4.8 8.0 0.00 0.00 0.00 62 1012.0
20260506101205 19 87 1.6 4.8 0.00 0.00 0.00 63 1012.3
20260506100705 19 19 1.6 4.8 0.00 0.00 0.00 64 1012.3
20260506094705 18 19 1.6 4.8 0.00 0.00 0.00 64 1012.5
20260506093705 18 70 1.6 4.8 0.00 0.00 0.00 65 1012.4
20260506093205 18 22 1.6 8.0 0.00 0.00 0.00 64 1012.3
20260506091205 18 31 1.6 4.8 0.00 0.00 0.00 68 1012.2
20260506090705 17 5 1.6 4.8 0.00 0.00 0.00 69 1012.2
20260506090205 17 325 0.0 8.0 0.00 0.00 0.00 69 1012.2
20260506084704 17 18 1.6 8.0 0.00 0.00 0.00 70 1012.3
20260506084205 17 25 3.2 4.8 0.00 0.00 0.00 71 1012.2
20260506083705 17 21 1.6 4.8 0.00 0.00 0.00 72 1012.2
20260506083205 17 9 0.0 4.8 0.00 0.00 0.00 73 1012.3
20260506081705 17 5 0.0 0.0 0.00 0.00 0.00 73 1012.2
20260506081205 17 10 1.6 4.8 0.00 0.00 0.00 74 1012.2
20260506080704 17 355 3.2 4.8 0.00 0.00 0.00 74 1012.1
20260506080204 17 13 3.2 4.8 0.00 0.00 0.00 73 1012.2
20260506073205 17 14 1.6 4.8 0.00 0.00 0.00 76 1012.2
20260506071705 16 301 0.0 0.0 0.00 0.00 0.00 77 1012.2
20260506071205 16 275 0.0 0.0 0.00 0.00 0.00 77 1012.2
20260506070705 16 275 0.0 0.0 0.00 0.00 0.00 79 1012.2
20260506070205 16 274 0.0 0.0 0.00 0.00 0.00 80 1012.1
20260506061705 14 273 0.0 0.0 0.00 0.00 0.00 86 1012.1
20260506061205 14 273 0.0 0.0 0.00 0.00 0.00 87 1012.1
20260506060204 14 273 0.0 0.0 0.00 0.00 0.00 87 1012.1
20260506051205 14 273 0.0 0.0 0.00 0.00 0.00 86 1011.7
20260506050705 14 273 0.0 0.0 0.00 0.00 0.00 86 1011.7
20260506050205 14 273 0.0 0.0 0.00 0.00 0.00 86 1011.6
20260506044705 14 273 0.0 0.0 0.00 0.00 0.00 86 1011.5
20260506044205 14 273 0.0 0.0 0.00 0.00 0.00 86 1011.5
20260506043704 14 273 0.0 0.0 0.00 0.00 0.00 86 1011.5
20260506043205 14 273 0.0 0.0 0.00 0.00 0.00 86 1011.5
20260506040704 14 273 0.0 0.0 0.00 0.00 0.00 85 1011.5
20260506040205 14 273 0.0 0.0 0.00 0.00 0.00 85 1011.5
20260506034705 14 271 0.0 0.0 0.00 0.00 0.00 84 1011.5
20260506034204 14 271 0.0 0.0 0.00 0.00 0.00 84 1011.5
20260506033204 15 271 0.0 0.0 0.00 0.00 0.00 84 1011.5
20260506031705 15 271 0.0 0.0 0.00 0.00 0.00 83 1011.5
20260506031205 15 271 0.0 0.0 0.00 0.00 0.00 83 1011.5
20260506030704 15 271 0.0 0.0 0.00 0.00 0.00 82 1011.5
20260506030205 15 271 0.0 0.0 0.00 0.00 0.00 82 1011.5
20260506024705 15 270 0.0 0.0 0.00 0.00 0.00 81 1011.4
20260506023704 15 270 0.0 0.0 0.00 0.00 0.00 80 1011.5
20260506023204 15 270 0.0 0.0 0.00 0.00 0.00 80 1011.6
20260506021705 15 270 0.0 0.0 0.00 0.00 0.00 81 1011.6
20260506021205 15 270 0.0 0.0 0.00 0.00 0.00 81 1011.6
20260506020705 15 270 0.0 0.0 0.00 0.00 0.00 81 1011.6
20260506020205 15 270 0.0 3.2 0.00 0.00 0.00 81 1011.6
20260506014704 15 271 0.0 0.0 0.00 0.00 0.00 79 1011.5
20260506014205 15 271 0.0 0.0 0.00 0.00 0.00 78 1011.5
20260506013705 16 271 0.0 0.0 0.00 0.00 0.00 78 1011.6
20260506013204 16 271 0.0 0.0 0.00 0.00 0.00 78 1011.6
20260506011705 16 271 0.0 0.0 0.00 0.00 0.00 77 1011.5
20260506011205 16 271 0.0 0.0 0.00 0.00 0.00 77 1011.6
20260506010705 16 271 0.0 0.0 0.00 0.00 0.00 78 1011.7
20260506010204 16 267 0.0 0.0 0.00 0.00 0.00 78 1011.7
20260506004705 16 267 1.6 3.2 0.00 0.00 0.00 79 1011.9
20260506004205 16 267 1.6 3.2 0.00 0.00 0.00 78 1011.9
20260506003704 16 267 0.0 3.2 0.00 0.00 0.00 78 1011.9
20260506003205 16 267 1.6 4.8 0.00 0.00 0.00 78 1012.0
20260506001704 16 273 0.0 0.0 0.00 0.00 0.00 77 1012.1
20260506001205 16 273 0.0 3.2 0.00 0.00 0.00 77 1012.1
20260506000205 16 294 3.2 4.8 0.00 0.00 0.00 77 1012.2
20260505234204 16 302 3.2 4.8 0.00 0.00 0.00 78 1012.2
20260505233704 16 307 3.2 8.0 0.00 0.00 0.00 78 1012.2
20260505233205 16 321 4.8 8.0 0.00 0.00 0.00 78 1012.1
20260505231704 16 317 1.6 4.8 0.00 0.00 0.00 78 1012.1
20260505231205 16 332 0.0 4.8 0.00 0.00 0.00 78 1012.1
20260505230705 16 17 1.6 4.8 0.00 0.00 0.00 78 1012.1
20260505230204 16 21 1.6 16.1 0.00 0.00 0.00 78 1012.1
20260505224705 16 15 4.8 16.1 0.00 0.00 0.00 79 1012.1
20260505224204 16 91 4.8 12.9 0.00 0.00 0.00 80 1012.0
20260505223704 16 22 6.4 14.5 0.00 0.00 0.00 80 1012.0
20260505223204 16 350 9.7 19.3 0.00 0.00 0.00 81 1012.0
20260505221205 17 15 4.8 11.3 0.00 0.00 0.00 81 1012.0
20260505220705 17 338 8.0 19.3 0.00 0.00 0.00 81 1012.0
20260505220205 17 12 4.8 16.1 0.00 0.00 0.00 82 1012.0
20260505214704 17 338 8.0 14.5 0.00 0.00 0.00 83 1011.9
20260505213205 17 326 6.4 16.1 0.00 0.00 0.00 83 1011.7
20260505211704 18 16 4.8 16.1 0.00 0.00 0.00 82 1011.5
20260505211205 18 32 3.2 4.8 0.00 0.00 0.00 81 1011.4
20260505210705 18 31 4.8 9.7 0.00 0.00 0.00 80 1011.3